Tracking 25963 objects as of 12-Aug-2022
HD Live streaming from Space Station
objects crossing your sky now

FREGAT R/B

Track FREGAT R/B now!


NORAD ID: 45609
Int'l Code: 2020-031B
Perigee: 2,517.5 km
Apogee: 37,703.3 km
Inclination: 63.7 °
Period: 714.8 minutes
Semi major axis: 26481 km
RCS: Unknown
Launch date: May 22, 2020
Source: Commonwealth of Independent States (former USSR) (CIS)
Launch site: PLESETSK MISSILE AND SPACE COMPLEX (PKMTR)

Note: This is a ROCKET BODY
aabbcc
Your satellite tracking list
Your tracking list is empty




NASA's NSSDC Master Catalog

Two Line Element Set (TLE):
1 45609U 20031B   22221.10090280  .00000902  00000-0  00000-0 0  9990
2 45609  63.6647 216.2561 6643479 265.4862  21.9290  2.01460953 16294
Source of the keplerian elements: AFSPC